Location: Bakov nad Jizerou
(50.4784°N, 14.9394°E)
Time: 03:10:20
(UTC+00:00)

Cosmos 2360 Rocket - Visible Passes

Search period start: 17 October 2021 00:00
Search period end: 27 October 2021 00:00
Orbit: 832 x 846 km, 71.0° (Epoch: 16 October)

Date Brightness Start Highest point End Pass type
(mag) Time Alt. Az. Time Alt. Az. Time Alt. Az.
17 Oct 4.9 01:45:11 10° N 01:47:46 13° NNE 01:50:21 10° NE visible
17 Oct 3.6 03:28:15 10° NNW 03:33:32 37° NE 03:38:47 10° ESE visible
18 Oct 4.9 01:29:28 10° N 01:31:55 13° NNE 01:34:21 10° NE visible
18 Oct 3.7 03:12:30 10° NNW 03:17:44 36° NE 03:22:56 10° ESE visible
19 Oct 5.0 01:13:46 10° N 01:16:04 12° NNE 01:18:22 10° NE visible
19 Oct 3.7 02:56:45 10° NNW 03:01:56 34° NE 03:07:04 10° ESE visible
19 Oct 2.4 04:40:41 10° NW 04:46:13 54° WSW 04:51:42 10° S visible
20 Oct 5.0 00:58:04 10° N 01:00:13 12° NNE 01:02:22 10° NE visible
20 Oct 3.8 02:41:01 10° NNW 02:46:08 33° NE 02:51:13 10° ESE visible
20 Oct 2.3 04:24:54 10° NW 04:30:28 57° WSW 04:36:00 10° S visible
20 Oct 3.8 17:38:05 10° SSE 17:39:48 17° SE 17:39:48 17° SE visible
20 Oct 4.1 19:20:11 10° SW 19:21:41 19° SW 19:21:41 19° SW visible
21 Oct 5.0 00:42:24 10° N 00:44:22 12° NNE 00:46:22 10° NE visible
21 Oct 3.8 02:25:17 10° NNW 02:30:20 31° NE 02:35:22 10° ESE visible
21 Oct 2.2 04:09:07 10° NW 04:14:43 60° WSW 04:20:17 10° SSE visible
21 Oct 3.3 17:22:30 10° SSE 17:26:16 21° ESE 17:26:16 21° ESE visible
21 Oct 3.0 19:04:24 10° SW 19:08:09 43° SW 19:08:09 43° SW visible
22 Oct 5.0 00:27:48 11° NNE 00:28:31 11° NNE 00:30:21 10° NE visible
22 Oct 3.9 02:09:37 10° NNW 02:14:32 30° NE 02:19:30 10° ESE visible
22 Oct 2.2 03:53:20 10° NW 03:58:58 64° WSW 04:04:34 10° SSE visible
22 Oct 3.4 17:06:57 10° SE 17:10:56 20° E 17:12:33 18° ENE visible
22 Oct 2.2 18:48:38 10° SSW 18:54:17 78° WNW 18:54:25 78° NW visible
22 Oct 4.8 20:35:01 10° W 20:36:17 15° WNW 20:36:17 15° WNW visible
23 Oct 5.1 00:13:29 11° NNE 00:13:29 11° NNE 00:14:20 10° NE visible
23 Oct 3.9 01:55:20 17° N 01:58:44 29° NE 02:03:38 10° ESE visible
23 Oct 2.1 03:37:34 10° NNW 03:43:13 68° WSW 03:48:50 10° SSE visible
23 Oct 3.5 16:51:23 10° SE 16:55:14 19° E 16:58:33 12° ENE visible
23 Oct 2.2 18:32:51 10° SSW 18:38:31 82° WNW 18:40:24 44° NNE visible
23 Oct 4.4 20:19:06 10° W 20:22:15 20° NW 20:22:15 20° NW visible
24 Oct 4.0 01:41:21 24° NNE 01:42:56 28° NE 01:47:45 10° ESE visible
24 Oct 2.1 03:23:13 18° NW 03:27:28 71° WSW 03:33:06 10° SSE visible
24 Oct 3.5 16:35:51 10° SE 16:39:31 18° E 16:43:11 10° ENE visible
24 Oct 2.1 18:17:06 10° SSW 18:22:46 86° WNW 18:26:04 26° NNE visible
24 Oct 4.3 20:03:12 10° W 20:07:36 23° NW 20:07:54 23° NW visible
25 Oct 4.1 01:27:38 26° NE 01:27:38 26° NE 01:31:53 10° E visible
25 Oct 2.0 03:09:32 39° NW 03:11:43 75° WSW 03:17:22 10° SSE visible
25 Oct 3.8 04:52:04 10° WNW 04:54:44 14° W 04:57:23 10° SW visible
25 Oct 3.6 16:20:20 10° SE 16:23:48 17° E 16:27:18 10° ENE visible
25 Oct 2.1 18:01:20 10° SSW 18:07:00 89° ESE 18:11:28 17° NNE visible
25 Oct 4.2 19:47:18 10° W 19:51:47 23° NW 19:53:16 21° NNW visible
26 Oct 4.5 01:14:07 18° E 01:14:07 18° E 01:16:00 10° E visible
26 Oct 2.0 02:56:00 79° SW 02:56:00 79° SW 03:01:37 10° SSE visible
26 Oct 3.7 04:37:54 14° W 04:39:01 14° W 04:41:58 10° SW visible
26 Oct 2.1 17:45:35 10° SSW 17:51:14 85° ESE 17:56:37 12° NNE visible
26 Oct 4.2 19:31:24 10° W 19:35:58 24° NW 19:38:24 19° N visible
